Weather History for Ann Arbor, MI

Change the Weather History Date:

Monday, November 4, 2013

  Actual Average Record
Temperature  
Mean Temperature 39 °F -  
Max Temperature 48 °F 52 °F 73 °F (2003)
Min Temperature 30 °F 32 °F 16 °F (2006)
Degree Days  
Heating Degree Days 26    
Moisture  
Dew Point 30 °F    
Average Humidity 70    
Maximum Humidity 96    
Minimum Humidity 43    
Precipitation  
Precipitation 0.00 in - - ()
Sea Level Pressure  
Sea Level Pressure 30.40 in    
Wind  
Wind Speed 6 mph (ESE)    
Max Wind Speed 14 mph    
Max Gust Speed 22 mph    
Visibility 10 miles    
Events      
Averages and records for this station are not official NWS values.
T = Trace of Precipitation, MM = Missing Value Source: NWS Daily Summary

Daily Weather History Graph

Daily Weather History Graph

Search for Another Location

Airport:

Trip Planner

Search our weather history database for the weather conditions in past years. The results will help you decide how hot, cold, wet, or windy it might be!

Date:

Astronomy

Nov. 04, 2013 Rise Set
Actual Time 7:12 AM EST 5:24 PM EST
Civil Twilight 6:42 AM EST 5:53 PM EST
Nautical Twilight 6:09 AM EST 6:27 PM EST
Astronomical Twilight 5:36 AM EST 6:59 PM EST
Moon 8:22 AM EST (11/4) 6:27 PM EST (11/4)
Length of Visible Light 11h 11m
Length of Day
10h 12m
New Moon, 2% of the Moon is Illuminated
Nov 4
New Moon
Nov 10
First Quarter
Nov 17
Full
Nov 25
Last Quarter
Dec 2
New

Hourly Weather History & Observations

Time (EST) Temp. Windchill Dew Point Humidity Pressure Visibility Wind Dir Wind Speed Gust Speed Precip Events Conditions
12:53 AM 33.1 °F 28.7 °F 28.9 °F 85% 30.46 in 10.0 mi ENE 4.6 mph - N/A   Clear
1:53 AM 34.0 °F 28.8 °F 28.9 °F 82% 30.45 in 10.0 mi ENE 5.8 mph - N/A   Clear
2:53 AM 33.1 °F 30.0 °F 28.9 °F 85% 30.46 in 10.0 mi NE 3.5 mph - N/A   Clear
3:53 AM 30.9 °F 26.2 °F 28.9 °F 92% 30.46 in 10.0 mi NE 4.6 mph - N/A   Clear
4:53 AM 30.0 °F 25.2 °F 28.9 °F 96% 30.46 in 10.0 mi ENE 4.6 mph - N/A   Clear
5:53 AM 34.0 °F 29.8 °F 30.0 °F 85% 30.47 in 10.0 mi East 4.6 mph - N/A   Clear
6:53 AM 34.0 °F 31.0 °F 30.0 °F 85% 30.47 in 10.0 mi ENE 3.5 mph - N/A   Clear
7:53 AM 35.1 °F 31.0 °F 30.9 °F 85% 30.48 in 10.0 mi SE 4.6 mph - N/A   Clear
8:53 AM 37.9 °F 32.1 °F 33.1 °F 83% 30.46 in 10.0 mi ESE 8.1 mph - N/A   Clear
9:53 AM 41.0 °F 34.3 °F 34.0 °F 76% 30.46 in 10.0 mi SE 11.5 mph - N/A   Clear
10:53 AM 45.0 °F 38.9 °F 32.0 °F 60% 30.46 in 10.0 mi SE 12.7 mph - N/A   Clear
11:53 AM 48.0 °F - 30.0 °F 50% 30.44 in 10.0 mi ESE 11.5 mph 16.1 mph N/A   Clear
12:53 PM 48.9 °F - 27.0 °F 43% 30.39 in 10.0 mi SE 13.8 mph 21.9 mph N/A   Clear
1:53 PM 48.0 °F - 27.0 °F 44% 30.37 in 10.0 mi SE 9.2 mph 19.6 mph N/A   Clear
2:53 PM 46.0 °F 41.0 °F 28.0 °F 50% 30.36 in 10.0 mi SE 10.4 mph - N/A   Clear
3:53 PM 45.0 °F 38.9 °F 28.9 °F 53% 30.35 in 10.0 mi SE 12.7 mph - N/A   Clear
4:53 PM 44.1 °F 39.0 °F 28.9 °F 55% 30.36 in 10.0 mi SE 9.2 mph - N/A   Clear
5:53 PM 43.0 °F 37.2 °F 30.9 °F 62% 30.34 in 10.0 mi ESE 10.4 mph - N/A   Clear
6:53 PM 43.0 °F 38.2 °F 32.0 °F 65% 30.34 in 10.0 mi ESE 8.1 mph - N/A   Clear
7:53 PM 43.0 °F 40.3 °F 33.1 °F 68% 30.33 in 10.0 mi ESE 4.6 mph - N/A   Clear
8:53 PM 42.1 °F 40.2 °F 30.9 °F 65% 30.33 in 10.0 mi ESE 3.5 mph - N/A   Clear
9:53 PM 42.1 °F 40.2 °F 32.0 °F 67% 30.33 in 10.0 mi SSE 3.5 mph - N/A   Clear
10:53 PM 44.1 °F 42.5 °F 33.1 °F 65% 30.32 in 10.0 mi SSE 3.5 mph - N/A   Mostly Cloudy
11:53 PM 39.9 °F - 33.1 °F 77% 30.32 in 10.0 mi Calm Calm - N/A   Scattered Clouds